FENGYUN 1C DEB

Satellite information

Favourite Embed

Satellite Type and Status

DEBRISIN ORBIT

Key statistics

Satellite FENGYUN 1C DEB at a glance.

Uptime

9555

Days in orbit

Revolutions

≈ 14.1

Per day

Orbit

SSO

Sun Synchronous Orbit

Inclination

99.9

Latest

Satellite identification and parameters

Extended collection of information and parameters for FENGYUN 1C DEB.

Object identification

Identified? True

Debris? True

Object name: FENGYUN 1C DEB

International designator: 1999-025GR

Object number (NORAD): 29895

Object ID (CCSDS): 29895

Country: PEOPLES REPUBLIC OF CHINA (PRC)

Current information (Y/N): Y

RCS size: SMALL

Orbital parameters

Period: 102.427 minutes

Inclination: 99.8826 deg

SMA: 7251.625 km

Apoapsis: 1098.391 km

Periapsis: 648.59 km

RAAN: 280.637 deg

Eccentricy: 0.0310138

Argument of periapsis: 58.5385 deg

Mean anomaly: 355.8142 deg

Mean motion: 14.05884825 rev/day

Mean motion (dot): 0.00002463 rev/day2

B* drag term: 0.00099595 1/REarth

Two-line elements (TLE)

Creation date: July 6, 2025, 6:05 p.m.

Reference frame: TEME

Reference center: EARTH

Epoch: July 6, 2025, 5:16 a.m. UTC

TLE line 0: 0 FENGYUN 1C DEB

TLE line 1: 1 29895U 99025GR 25187.21973847 .00002463 00000-0 99595-3 0 9997

TLE line 2: 2 29895 99.8826 280.6370 0310138 58.5385 355.8142 14.05884825932819

Live tracking on map

Real-time ground track for satellite FENGYUN 1C DEB.

In-orbit conjunctions

A list of the most updated potential collisions computed for object FENGYUN 1C DEB.

Target Orbit TCA Probability of collision Miss distance Type
COSMOS 2327 LEO 2024-11-02 11:50:13 0.001162907 101.0 (m) PAYLOAD
ARIANE 40 R/B SSO 2024-09-03 18:08:31 0.000151602 600.0 (m) ROCKET BODY

Associated space launch

Chinese polar orbiting meteorological satellite

FENGYUN 1C DEB was lifted into orbit during the mission ‘Long March 4B | Feng Yun 1C’, on board a Long March 4B space rocket.

The launch took place on May 10, 1999, 1:33 a.m. from Launch Complex 7.

For more information about the launch, click the button.

Launch to space Long March 4B | Feng Yun 1C
Long March 4B | Feng Yun 1C

Agency: N/A

Status: Launch Successful

Launch date: May 10, 1999, 1:33 a.m. UTC

Rocket: Long March 4B

Launch pad: Launch Complex 7

Location: Taiyuan Satellite Launch Center, People's Republic of China

...

Latest news about this satellite

There are no fresh news available about this satellite. Check back as we update our databases every day.


Newsletter sign-up

Weekly statistics, charts and insights to help you stay on top of the space industry.